This demonstration page uses our WeatherBlox Daily Observations layout. Learn more.

Left ArrowRight Arrow

Hourly Observations for March 20, 2015

Temp ( °F °C ) Dew Point ( °F °C ) Humidity (%) Winds ( mph kmh ) Pressure ( in mb ) Visibility ( mi km ) Precip ( " mm )
12:51 am 00:51 Clear 50 10 47 8.3 89 89 NE 7 11 30.02 1017 10 16 0.00 0.00
1:51 am 01:51 Clear 50 10 47 8.3 89 89 NNE 7 11 30.01 1016 10 16 0.00 0.00
2:51 am 02:51 Clear 49 9.4 47 8.3 93 93 Calm 30.01 1016 10 16 0.00 0.00
3:51 am 03:51 Clear 47 8.3 45 7.2 93 93 Calm 30.02 1017 10 16 0.00 0.00
4:51 am 04:51 Clear 46 7.8 44 6.7 93 93 Calm 30.04 1017 10 16 0.00 0.00
5:51 am 05:51 Clear 44 6.7 43 6.1 96 96 Calm 30.06 1018 10 16 0.00 0.00
6:51 am 06:51 Sunny 46 7.8 44 6.7 93 93 Calm 30.08 1019 10 16 0.00 0.00
7:51 am 07:51 Sunny 51 10.6 46 7.8 83 83 SSE 5 7 30.08 1019 10 16 0.00 0.00
8:51 am 08:51 Sunny 57 13.9 46 7.8 67 67 Calm 30.09 1019 10 16 0.00 0.00
9:51 am 09:51 Sunny 61 16.1 47 8.3 60 60 ESE 9 15 30.09 1019 10 16 0.00 0.00
10:51 am 10:51 Sunny 63 17.2 47 8.3 56 56 SSE 5 7 30.08 1019 10 16 0.00 0.00
11:51 am 11:51 Sunny 66 18.9 45 7.2 47 47 ESE 5 7 30.06 1018 10 16 0.00 0.00
12:51 pm 12:51 Sunny 69 20.6 43 6.1 39 39 VRB 6 9 30.02 1017 10 16 0.00 0.00
1:51 pm 13:51 Mostly Sunny 71 21.7 44 6.7 38 38 VRB 3 6 29.98 1015 10 16 0.00 0.00
2:51 pm 14:51 Sunny 71 21.7 40 4.4 32 32 S 7 11 29.96 1015 10 16 0.00 0.00
3:51 pm 15:51 Sunny 72 22.2 39 3.9 30 30 VRB 3 6 29.94 1014 10 16 0.00 0.00
4:51 pm 16:51 Sunny 72 22.2 37 2.8 28 28 Calm 29.94 1014 10 16 0.00 0.00
5:51 pm 17:51 Mostly Sunny 69 20.6 41 5 36 36 NE 13 20 29.95 1014 10 16 0.00 0.00
6:51 pm 18:51 Partly Cloudy 66 18.9 40 4.4 39 39 NE 12 19 29.97 1015 10 16 0.00 0.00
7:51 pm 19:51 Mostly Cloudy 61 16.1 46 7.8 58 58 WNW 9 15 30.02 1017 10 16 0.00 0.00
8:51 pm 20:51 Clear 59 15 43 6.1 56 56 W 14 22 30.04 1017 10 16 0.00 0.00
9:51 pm 21:51 Mostly Clear 57 13.9 42 5.6 58 58 WNW 3 6 30.04 1017 10 16 0.00 0.00
10:51 pm 22:51 Clear 55 12.8 43 6.1 64 64 NNE 5 7 30.02 1017 10 16 0.00 0.00
11:51 pm 23:51 Partly Cloudy 53 11.7 43 6.1 69 69 N 5 7 30.02 1017 10 16 0.00 0.00

Powered by AerisWeather